1st Responders/1st Detectors/Storm Spotters Weather Summary for Clark County, KY

Forecast Maps


Reg. NEXRAD Animation


National Fire Danger: Day 1 & 2 Map

Current NWS Watch/Warnings

SPC Convective Day 1 Outlook


Day 2 Outlook

(Click images to enlarge|Page will refresh every 5 minutes)
UK Ag. Weather Center Desktop Severe Weather Service[HERE]
Clark County, KY Hazardous Weather Outlook Webcast
(9 AM to 9 PM Mon-Fri)
[Fast]
[Dial-up]


UKAWC 1st Detectors/1st Responders Precision Weather Forecast For CLARK County, Kentucky
(based on the NWS County Digital Forecast)

ISSUED AT 17:00 UTC ON FRIDAY MAR 22 2019
DAY FRIDAY
EDT 3HR 2P 3P 4P 5P 6P 7P
MAX/MIN -- -- -- -- -- 52°
TEMP 50° 50° 50° 49° 47° 45°
SKY COVER 53% 50% 47% 44% 37% 31%
Clouds
DEW PT 34° 34° 32° 31° 29° 29°
RH 53% 51% 49% 47% 49% 51%
POP 12HR -- -- -- -- -- --
RAIN/SNOW (liq.equ) 0.00in -- -- -- -- --
SNOWFALL 0in -- -- -- -- --
WIND SPEED(MPH) 17 17 16 16 15 13
WIND Gust(MPH) 31 31 31 29 23 21
WIND DIR NW NW NW NW NW NW
DEW -- -- -- -- -- --
HeatIndex 50 50 50 49 47 45
Rain Showers -- -- -- -- -- --
WIND CHILL -- -- -- -- -- 39°
SPRAY COND
DRY COND
LIVESTOCK COLDSTRESS



DAY SATURDAY SUNDAY MONDAY TUESDAY WEDNESDAY THURSDAY
EDT 6HR 8P 9P 10P 11P MIDN 1A 2A 3A 4A 5A 6A 7A 8A 9A 10A 11A NOON 1P 2P 3P 4P 5P 6P 7P 8P 9P 10P 11P MIDN 1A 2A 5A 8A 11A 2P 5P 8P 2A 8A 2P 8P 2A 8A 2P 8P 2A 8A 2P 8P 2A 8A 2P 8P
MAX/MIN -- -- -- -- -- -- -- -- -- -- -- -- 25° -- -- -- -- -- -- -- -- -- -- 52° -- -- -- -- -- -- -- -- 34° -- -- 61° -- -- 47° 56° -- -- 29° 47° -- -- 27° 56° -- -- 38° 67° --
TEMP 43° 40° 38° 38° 36° 34° 32° 31° 31° 29° 29° 27° 27° 29° 32° 38° 41° 45° 49° 50° 52° 52° 52° 49° 45° 43° 40° 38° 38° 36° 36° 34° 36° 50° 58° 59° 54° 47° 47° 56° 47° 36° 29° 47° 43° 34° 29° 54° 49° 40° 41° 63° 61°
SKY COVER 24% 20% 16% 12% 8% 4% 0% 1% 1% 1% 1% 1% 0% 1% 1% 1% 1% 0% 0% 0% 0% 1% 1% 2% 2% 3% 4% 5% 11% 21% 26% 58% 74% 62% 76% 81% 95% 90% 91% 92% 83% 59% 35% 13% 13% 13% 6% 5% 9% 14% 34% 26% 56%
Clouds
DEW PT 29° 29° 27° 27° 27° 25° 25° 25° 25° 25° 23° 23° 22° 22° 22° 22° 22° 22° 22° 22° 22° 22° 22° 23° 25° 25° 25° 25° 25° 23° 23° 23° 25° 31° 36° 38° 40° 43° 45° 47° 38° 23° 18° 18° 20° 22° 22° 29° 34° 31° 32° 38° 38°
RH 57% 62% 63% 66% 69% 72% 75% 78% 78% 81% 81% 85% 81% 74% 66% 54% 46% 39% 35% 32% 30% 30% 31% 37% 43% 48% 52% 56% 58% 58% 61% 63% 63% 45% 41% 45% 61% 86% 89% 68% 68% 61% 63% 32% 41% 61% 72% 37% 53% 70% 70% 39% 42%
POP 12HR 6% -- -- -- -- -- -- -- -- -- -- -- 1% -- -- -- -- -- -- -- -- -- -- -- 0% -- -- -- -- -- -- -- 6% -- -- -- 34% -- 80% -- 73% -- 12% -- 1% -- 0% -- 1% -- 3% -- 3%
RAIN/SNOW (liq.equ) 0.00in -- -- -- -- -- 0.00in -- -- -- -- -- 0.00in -- -- -- -- -- 0.00in -- -- -- -- -- 0.00in -- -- -- -- -- 0.00in -- 0.00in -- 0.00in -- 0.00in 0.01in 0.11in -- -- -- -- -- -- -- -- -- -- -- -- -- --
SNOWFALL 0in -- -- -- -- -- 0in -- -- -- -- -- 0in -- -- -- -- -- 0in -- -- -- -- -- 0in -- -- -- -- -- 0in -- 0in -- 0in -- 0in 0in 0in -- -- -- -- -- -- -- -- -- -- -- -- -- --
WIND SPEED(MPH) 8 7 7 7 7 7 6 6 5 5 5 2 2 5 2 2 2 2 2 2 1 1 1 1 1 1 2 2 2 5 5 2 5 7 8 10 7 7 8 9 14 9 10 9 7 6 5 2 5 6 7 10 7
WIND DIR NW NW NW NW NW NW NW NW N N N N N N N N N N N N N N N NE NE E E E E E SE SE SE S SW SW S S SW N N NE NE NE NE NE E S S S S S S
HeatIndex 37 35 33 32 29 27 27 26 26 25 23 24 23 23 29 35 40 45 49 50 52 52 52 49 45 43 38 36 35 33 32 32 32 50 58 59 54 47 47 56 47 28 20 47 38 28 25 54 49 37 37 63 61
Rain Showers -- -- -- -- -- -- -- -- -- -- -- -- -- -- -- -- -- -- -- -- -- -- -- -- -- -- -- -- -- -- -- -- -- -- Chance Chance Slight Chance Definite Likely Likely -- -- -- -- -- -- -- -- -- -- -- -- --
WIND CHILL 38° 35° 33° 33° 30° 28° 27° 25° 26° 24° 24° -- -- 24° -- -- -- -- -- -- -- -- -- -- -- -- -- -- -- 32° 32° -- 32° -- -- -- -- -- -- -- -- 29° 20° -- 39° 29° 24° -- -- 36° 36° -- --
SPRAY COND
DRY COND
LIVESTOCK COLDSTRESS

Click on individual weather variable above in left-hand column (ie., TEMP, RH, QPF 12HR) to view state forecast maps






NWS 48 Hr. Forecast Maps,

Regional Hourly Observations For CLARK County, Kentucky
Issued at 100 PM EDT FRI MAR 22 2019
NORTHEAST KENTUCKY
  
CITY           SKY/WX    TMP DP  RH WIND       PRES   REMARKS
LEXINGTON      FAIR      53  36  52 W18G25    29.97F                  
COVINGTON      PTSUNNY   46  31  55 N17G28    29.98R                  
FRANKFORT      FAIR      54  36  50 W14G24    29.98S                  


Current NOWCAST not available:
Nowcasts are not issued routinely during fair weather. Only when
precipitation or other significant weather is occuring in this county will these
forecasts be issued. Currently, there is no short term forecast in effect.


Fire Weather Forecast For CLARK County, KY
Provided by the National Weather Service:

Issued at: Fri Mar 22 13:05:01 EDT 2019


                      Today        Tonight      Sat          

CLOUD COVER           PCldy        MClear       Clear        
PRECIP TYPE           None         None         None         
CHANCE PRECIP (%)     0            0            0            
TEMP (24H TREND)      52 (+2)      25 (-11)     54           
RH % (24H TREND)      42 (-30)     90 (0)       29           
20FTWND-VAL/AM(MPH)   W  9 G20                  Lgt/Var      
20FTWND-RDG/PM(MPH)   NW 13 G21    NW  7        Lgt/Var      
PRECIP AMOUNT         0.00         0.00         0.00         
MIXING HGT(FT-AGL/MSL)6178                      4499         
TRANSPORT WND (MPH)   NW 29                     NW  3        
VENT RATE (KT-FT)     160628                    24890        
DISPERSION            Excellent                 Poor         
DSI                   SLGT UNSTBL  SLGT UNSTBL  SLGT UNSTBL  
LAL                   1            1            1            
HAINES INDEX          2            3            4            
ADI EARLY             75 GOOD      27 FAIR      20 GEN POOR  
ADI LATE              97 GOOD      7 POOR       27 FAIR      
MAX LVORI EARLY       4            3            5            
MAX LVORI LATE        1            5            2            

REMARKS...ADI IS ATMOSPHERIC DISPERSION INDEX BY LAVDAS.        
LVORI IS LOW VISIBILITY OCCURRENCE RISK INDEX.

.SUNDAY...Partly cloudy. A 40 percent chance of rain showers.
Lows in the mid 30s. Highs in the lower 60s. East winds around
5 mph. 
.MONDAY...Rain showers likely. Lows in the upper 40s. Highs in
the upper 50s. South winds around 5 mph. 
.TUESDAY...Partly cloudy. Lows around 30. Highs in the upper 40s.
Northeast winds 5 to 10 mph. 
.WEDNESDAY...Mostly clear. Lows in the upper 20s. Highs in the
upper 50s. South winds around 5 mph. 
.THURSDAY...Mostly clear. Warmer. Lows in the upper 30s. Highs in
the upper 60s. South winds 5 to 10 mph. 

SPC's Fire Weather Web Tool (Excellent!), SPC's Fire Weather Outlooks, NWS Fire Weather WEB, Fire Danger Class Map,
Keetch-Byram Drought Index, ROMAN Web, Haines Index ,
WFAS's 10-hr Dead Fuel Moist., WFAS's 100-hr Dead Fuel Moist., Probablity of Ignition, Visual blackness Map, Palmer Drought Index, HPC's Rainfall Forecast Maps


Hazardous Weather Outlook For CLARK County, Kentucky
428 AM EDT Fri Mar 22 2019 /328 AM CDT Fri Mar 22 2019/

 DAY ONE  Today and Tonight.

No hazardous weather is expected at this time.

 DAYS TWO THROUGH SEVEN  Saturday through Thursday.

No hazardous weather is expected at this time.

 SPOTTER INFORMATION STATEMENT  

Spotter activation will not be needed.

Latest CLARK County, Kentucky Watches, Warnings and Advisories.
Additional Drought Info.: UKAWC Drought Page, Kentucky Drought Watch


7-Day Forecast For CLARK County, KY

TODAY
Partly cloudy. Highs around 50. West winds 5 to 15 mph shifting to the northwest 15 to 20 mph in the afternoon.

TONIGHT
Clear. Lows in the mid 20s. Northwest winds 5 to 10 mph with gusts to around 25 mph.

SATURDAY
Sunny. Highs in the lower 50s. North winds up to 5 mph.

SATURDAY NIGHT
Mostly clear. Lows in the mid 30s. East winds up to 5 mph.

SUNDAY
Mostly cloudy with a 40 percent chance of rain showers. Highs in the lower 60s. South winds 5 to 10 mph.

SUNDAY NIGHT
Showers likely. Lows in the upper 40s. Chance of showers 70 percent.

MONDAY
Showers likely. Highs in the upper 50s. Chance of showers 70 percent.

MONDAY NIGHT
Partly cloudy. Lows around 30.

TUESDAY
Mostly sunny. Highs in the upper 40s.

TUESDAY NIGHT
Mostly clear. Lows in the upper 20s.

WEDNESDAY
Mostly sunny. Highs in the upper 50s.

WEDNESDAY NIGHT
Mostly clear. Lows in the upper 30s.

THURSDAY
Partly cloudy. Highs in the upper 60s.

Ag Weather Center, Department of Biosystems & Agricultural Engineering, University of Kentucky